Location: El Bakhil
(32.7726°N, 5.5387°W)
Time: 18:53:28
(UTC+00:00)

DELTA 2 R/B (1) - Pass Details

Date: 03 March 2021
Orbit: 789 x 804 km, 39.6° (Epoch: 09 April)

Event Time Altitude Azimuth Distance (km) Brightness Sun altitude
Rises 18:37:31 0° 217° (SW) 3,271 7.4 -4.3°
Reaches altitude 10° 18:40:11 10° 208° (SSW) 2,342 6.5 -4.8°
Maximum altitude 18:45:08 34° 144° (SE) 1,265 4.4 -5.9°
Drops below altitude 10° 18:50:06 10° 80° (E) 2,344 5.3 -6.9°
Enters shadow 18:50:35 - 78° (ENE) 2,509 5.5 -7.0°
